Regional Weather Roundup
Issued by NWS Spokane, WA

Home | Current Version | Previous Version | Text Only | Print | Product List | Glossary On
Versions: 1 2 3 4 5 6 7 8 9 10 11 12 13 14 15 16 17 18 19 20 21 22 23 24 25 26 27 28 29 30 31 32 33 34 35 36 37 38 39 40 41 42 43 44 45 46 47 48 49 50
000
NZUS01 KOTX 190425
RWROTX

Eastern Washington/Northern Idaho Roundup
National Weather Service, Spokane WA
800 PM PST WED JAN 18 2017

Note: "fair" indicated few or no clouds below 12,000 feet with no
significant weather and/or obstructions to visibility.

...Northeast Washington and Northern Idaho Panhandle...

CITY           SKY/WX    TMP DP  RH WIND       PRES   REMARKS
Spokane Intl   LGT RAIN  36  34  92 SE5       29.49F
Spokane Downto CLOUDY    35  35 100 CALM      29.52S
Coeur d Alene  LGT RAIN  34  33  96 NE8       29.52F WCI  27
Deer Park      MIX PCPN  34  33  96 CALM      29.50F
Sandpoint      DRIZZLE   32  32 100 CALM      29.53F
Bonners Ferry  FOG       32  32 100 CALM      29.52F VSB 1/4

...Southeast Washington and southern Idaho Panhandle...

CITY           SKY/WX    TMP DP  RH WIND       PRES   REMARKS
Walla Walla    LGT RAIN  46  33  60 SE26G38   29.45F
Pullman/Moscow LGT RAIN  36  33  89 SE17      29.54F
Lewiston       LGT RAIN  37  33  85 E8        29.56F
Lowell           N/A     33  31  92 NW3       29.62F
Grangeville    CLOUDY    36  32  87 SW3       29.55S

...Columbia Basin...

CITY           SKY/WX    TMP DP  RH WIND       PRES   REMARKS
Ephrata        LGT RAIN  34  29  82 N6        29.46F WCI  29
Moses Lake     FRZ RAIN  32  31  96 SW3       29.47F FOG
Pasco          MIX PCPN  31  30  96 W6        29.50F WCI  25
Richland       MIX PCPN  32  32  99 CALM      29.50S
Hermiston      LGT RAIN  41  34  76 E14       29.40F
Pendleton      LGT RAIN  43  34  70 SE23      29.41F

...East Slopes Cascades...

CITY           SKY/WX    TMP DP  RH WIND       PRES   REMARKS
The Dalles     CLOUDY    30  26  85 NW3       29.44S FOG
Yakima         CLOUDY    32  29  88 CALM      29.45F FOG
Ellensburg     LGT SNOW  32  28  85 E7        29.41F FOG     WCI  26
Stampede Pass  SNOW      28  28 100 VRB5      29.28F VSB 1/4 WCI  23
Wenatchee      LGT SNOW  25  25 100 NW5       29.49R FOG     WCI  19
Omak           LGT SNOW  29  26  89 CALM      29.49F FOG
Sunnyside      MIX PCPN  26  23  89 CALM      29.47F

...Southern British Columbia...

CITY           SKY/WX    TMP DP  RH WIND       PRES   REMARKS
Penticton      LGT RAIN  36  34  93 SE13      29.43F
Cranbrook      CLOUDY    34  32  93 W3        29.52F
Osoyoos          N/A     34  32  93 S9          N/A  WCI  26
Creston          N/A     34  34 100 E2          N/A

...Western Montana...

CITY           SKY/WX    TMP DP  RH WIND       PRES   REMARKS
Kalispell      CLOUDY    31  30  96 CALM      29.55F FOG
Missoula       CLOUDY    27  24  89 E3        29.59F

...Neighboring Cities...

CITY           SKY/WX    TMP DP  RH WIND       PRES   REMARKS
Seattle        LGT RAIN  46  41  82 E7        29.25S
Portland       LGT RAIN  46  44  93 S20G31    29.38R
Boise          LGT RAIN  33  31  92 SE20      29.72F FOG     WCI  21
Great Falls    CLOUDY    39  26  59 SW15      29.50F
Calgary        CLEAR     32  25  74 N7        29.27F WCI  26



USA.gov is the U.S. government's official web portal to all federal, state and local government web resources and services.